User: anonymous   Login
Location: Bourg-d�Oueil
(42.8588°N, 0.4991°E)
Time: 08:27:19
(UTC+00:00)
Language:

NOAA 13 - Orbit

View from above orbital plane
View from above orbital plane
View from above satellite
View from above satellite

Ground track
Ground track

The orbit data is extracted from the following two-line orbital elements,

1 22739U 93050A   22028.86030581  .00000025  00000-0  35569-4 0  9994
2 22739  98.4896  15.7323 0010053  29.1592 331.0141 14.12811182467343
Epoch (UTC): 28 January 2022 20:38:50
Eccentricity: 0.0010053
inclination: 98.4896°
perigee height: 842 km
apogee height: 857 km
right ascension of ascending node: 15.7323°
argument of perigee: 29.1592°
revolutions per day: 14.12811182
mean anomaly at epoch: 331.0141°
orbit number at epoch: 46734

The dashed part of the orbit path shows where the satellite is in the earth's shadow,  

DLR